| time (UTC) | temp F | wind direction | speed MPH | gust MPH | rain 1hr in | rain 24hr in | rain mn in | humidity % | barometer mb |
| 20260507054413 | 54 | 45 | 0.0 | 1.0 | 0.00 | 0.80 | 0.01 | 88 | 1014.2 |
| 20260507053914 | 55 | 45 | 0.0 | 1.0 | 0.00 | 0.81 | 0.01 | 90 | 1014.2 |
| 20260507053414 | 54 | 254 | 0.0 | 1.0 | 0.00 | 0.81 | 0.01 | 89 | 1014.5 |
| 20260507052914 | 54 | 50 | 0.0 | 1.0 | 0.00 | 0.82 | 0.01 | 90 | 1014.2 |
| 20260507051914 | 54 | 74 | 0.0 | 2.0 | 0.00 | 0.83 | 0.01 | 91 | 1014.4 |
| 20260507051414 | 53 | 69 | 0.0 | 2.0 | 0.00 | 0.83 | 0.01 | 92 | 1014.2 |
| 20260507050913 | 53 | 53 | 1.0 | 2.0 | 0.00 | 0.83 | 0.01 | 93 | 1014.2 |
| 20260507050414 | 53 | 34 | 0.0 | 1.0 | 0.00 | 0.83 | 0.01 | 94 | 1014.5 |
| 20260507045914 | 53 | 72 | 0.0 | 1.0 | 0.00 | 0.83 | 0.01 | 95 | 1014.2 |
| 20260507045413 | 52 | 62 | 0.0 | 0.0 | 0.00 | 0.83 | 0.01 | 95 | 1014.2 |
| 20260507044414 | 52 | 49 | 0.0 | 1.0 | 0.00 | 0.83 | 0.01 | 95 | 1014.2 |
| 20260507043916 | 52 | 48 | 0.0 | 1.0 | 0.00 | 0.83 | 0.01 | 95 | 1014.2 |
| 20260507042913 | 52 | 218 | 0.0 | 1.0 | 0.00 | 0.83 | 0.01 | 95 | 1013.9 |
| 20260507042416 | 52 | 160 | 0.0 | 1.0 | 0.00 | 0.83 | 0.01 | 96 | 1013.9 |
| 20260507041414 | 52 | 165 | 0.0 | 1.0 | 0.00 | 0.83 | 0.01 | 96 | 1013.9 |
| 20260507040914 | 52 | 145 | 0.0 | 1.0 | 0.00 | 0.83 | 0.01 | 95 | 1013.9 |
| 20260507040414 | 52 | 174 | 0.0 | 1.0 | 0.00 | 0.83 | 0.01 | 95 | 1013.9 |
| 20260507035914 | 52 | 248 | 0.0 | 1.0 | 0.00 | 0.83 | 0.01 | 95 | 1013.9 |
| 20260507034414 | 52 | 218 | 0.0 | 0.0 | 0.00 | 0.83 | 0.01 | 95 | 1013.8 |
| 20260507033917 | 52 | 194 | 0.0 | 0.0 | 0.00 | 0.83 | 0.01 | 95 | 1013.9 |
| 20260507033416 | 52 | 135 | 0.0 | 0.0 | 0.00 | 0.83 | 0.01 | 95 | 1013.7 |
| 20260507032914 | 52 | 198 | 0.0 | 1.0 | 0.00 | 0.83 | 0.01 | 95 | 1013.5 |
| 20260507032414 | 53 | 174 | 0.0 | 1.0 | 0.00 | 0.83 | 0.01 | 95 | 1013.5 |
| 20260507031914 | 53 | 76 | 0.0 | 1.0 | 0.00 | 0.83 | 0.01 | 95 | 1013.5 |
| 20260507031414 | 53 | 73 | 0.0 | 1.0 | 0.00 | 0.83 | 0.01 | 95 | 1013.5 |
| 20260507030914 | 53 | 73 | 0.0 | 1.0 | 0.00 | 0.83 | 0.01 | 95 | 1013.5 |
| 20260507030414 | 53 | 72 | 0.0 | 1.0 | 0.00 | 0.83 | 0.01 | 95 | 1013.5 |
| 20260507025914 | 53 | 73 | 1.0 | 1.0 | 0.00 | 0.83 | 0.01 | 95 | 1013.5 |
| 20260507025416 | 53 | 250 | 0.0 | 1.0 | 0.00 | 0.83 | 0.01 | 95 | 1013.7 |
| 20260507024914 | 53 | 245 | 0.0 | 1.0 | 0.00 | 0.83 | 0.01 | 95 | 1013.9 |
| 20260507024414 | 52 | 239 | 0.0 | 1.0 | 0.00 | 0.83 | 0.01 | 95 | 1013.6 |
| 20260507023914 | 52 | 201 | 0.0 | 1.0 | 0.00 | 0.83 | 0.01 | 95 | 1013.5 |
| 20260507023415 | 52 | 87 | 0.0 | 1.0 | 0.00 | 0.83 | 0.01 | 95 | 1013.5 |
| 20260507022915 | 52 | 175 | 0.0 | 1.0 | 0.00 | 0.83 | 0.01 | 95 | 1013.5 |
| 20260507022413 | 52 | 89 | 0.0 | 1.0 | 0.00 | 0.83 | 0.01 | 95 | 1013.6 |
| 20260507021914 | 52 | 106 | 0.0 | 1.0 | 0.00 | 0.83 | 0.01 | 95 | 1013.5 |
| 20260507020414 | 53 | 188 | 0.0 | 1.0 | 0.00 | 0.83 | 0.01 | 95 | 1013.5 |
| 20260507015914 | 53 | 81 | 0.0 | 1.0 | 0.00 | 0.83 | 0.01 | 95 | 1013.5 |
| 20260507015414 | 53 | 252 | 0.0 | 1.0 | 0.00 | 0.83 | 0.01 | 95 | 1013.5 |
| 20260507014414 | 53 | 191 | 0.0 | 1.0 | 0.00 | 0.83 | 0.01 | 96 | 1013.3 |
| 20260507013914 | 53 | 189 | 0.0 | 1.0 | 0.00 | 0.83 | 0.01 | 96 | 1013.4 |
| 20260507013413 | 53 | 68 | 0.0 | 1.0 | 0.00 | 0.83 | 0.01 | 96 | 1013.5 |
| 20260507012913 | 53 | 71 | 0.0 | 2.0 | 0.00 | 0.83 | 0.01 | 96 | 1013.5 |
| 20260507012415 | 53 | 86 | 0.0 | 2.0 | 0.00 | 0.83 | 0.01 | 95 | 1013.2 |
| 20260507011914 | 53 | 243 | 0.0 | 2.0 | 0.00 | 0.83 | 0.01 | 96 | 1013.2 |
| 20260507011414 | 53 | 216 | 0.0 | 2.0 | 0.00 | 0.83 | 0.01 | 95 | 1013.2 |
| 20260507010414 | 53 | 250 | 1.0 | 2.0 | 0.00 | 0.83 | 0.01 | 95 | 1013.5 |
| 20260507004914 | 53 | 170 | 0.0 | 0.0 | 0.00 | 0.83 | 0.01 | 95 | 1013.5 |
| 20260507004414 | 54 | 102 | 0.0 | 0.0 | 0.00 | 0.83 | 0.01 | 95 | 1013.5 |
| 20260507003914 | 54 | 105 | 0.0 | 1.0 | 0.00 | 0.83 | 0.01 | 94 | 1013.5 |
| 20260507003414 | 54 | 105 | 0.0 | 1.0 | 0.00 | 0.83 | 0.01 | 94 | 1013.2 |
| 20260507002913 | 54 | 108 | 0.0 | 1.0 | 0.00 | 0.83 | 0.01 | 94 | 1013.5 |
| 20260507002414 | 55 | 184 | 0.0 | 0.0 | 0.00 | 0.83 | 0.01 | 94 | 1013.2 |
| 20260507001914 | 55 | 162 | 0.0 | 0.0 | 0.00 | 0.83 | 0.01 | 94 | 1013.3 |
| 20260507001414 | 55 | 79 | 0.0 | 1.0 | 0.01 | 0.83 | 0.01 | 94 | 1013.2 |
| 20260507000915 | 55 | 78 | 0.0 | 1.0 | 0.01 | 0.83 | 0.01 | 94 | 1013.2 |
| 20260506235915 | 56 | 69 | 0.0 | 1.0 | 0.01 | 0.83 | 0.01 | 94 | 1013.2 |
| 20260506235414 | 55 | 264 | 0.0 | 0.0 | 0.01 | 0.83 | 0.01 | 93 | 1013.2 |
| 20260506234914 | 56 | 60 | 0.0 | 0.0 | 0.01 | 0.83 | 0.01 | 94 | 1013.2 |
| 20260506234414 | 55 | 111 | 0.0 | 1.0 | 0.01 | 0.83 | 0.01 | 93 | 1013.0 |
| 20260506233914 | 55 | 141 | 0.0 | 1.0 | 0.01 | 0.83 | 0.01 | 93 | 1013.1 |
| 20260506233413 | 55 | 178 | 0.0 | 1.0 | 0.01 | 0.83 | 0.01 | 93 | 1013.2 |
| 20260506232415 | 55 | 137 | 0.0 | 1.0 | 0.01 | 0.83 | 0.01 | 93 | 1013.2 |
| 20260506231915 | 56 | 94 | 0.0 | 1.0 | 0.01 | 0.83 | 0.01 | 93 | 1013.2 |
| 20260506231414 | 56 | 97 | 0.0 | 1.0 | 0.00 | 0.82 | 0.00 | 93 | 1012.9 |
| 20260506230914 | 55 | 213 | 0.0 | 1.0 | 0.00 | 0.82 | 0.00 | 93 | 1013.1 |
| 20260506225914 | 56 | 276 | 0.0 | 1.0 | 0.00 | 0.82 | 0.00 | 93 | 1013.1 |
| 20260506225415 | 56 | 254 | 0.0 | 2.0 | 0.00 | 0.82 | 0.00 | 93 | 1013.0 |
| 20260506224916 | 56 | 72 | 0.0 | 2.0 | 0.00 | 0.82 | 0.00 | 92 | 1013.2 |
| 20260506224414 | 56 | 84 | 0.0 | 2.0 | 0.00 | 0.82 | 0.00 | 92 | 1013.1 |
| 20260506223914 | 56 | 69 | 1.0 | 2.0 | 0.00 | 0.82 | 0.00 | 93 | 1013.2 |
| 20260506223414 | 56 | 70 | 1.0 | 1.0 | 0.00 | 0.82 | 0.00 | 93 | 1013.2 |
| 20260506222914 | 56 | 50 | 0.0 | 2.0 | 0.00 | 0.82 | 0.00 | 93 | 1012.9 |
| 20260506222414 | 56 | 227 | 0.0 | 2.0 | 0.00 | 0.82 | 0.00 | 93 | 1013.1 |
| 20260506221914 | 56 | 239 | 1.0 | 2.0 | 0.00 | 0.82 | 0.00 | 93 | 1012.9 |
| 20260506221414 | 56 | 200 | 0.0 | 3.0 | 0.00 | 0.82 | 0.00 | 93 | 1012.9 |
| 20260506220415 | 56 | 63 | 0.0 | 3.0 | 0.00 | 0.82 | 0.00 | 93 | 1012.9 |
| 20260506215916 | 56 | 168 | 0.0 | 1.0 | 0.00 | 0.82 | 0.82 | 93 | 1012.9 |
| 20260506215414 | 56 | 216 | 0.0 | 1.0 | 0.00 | 0.82 | 0.82 | 93 | 1012.9 |
| 20260506214915 | 56 | 78 | 0.0 | 1.0 | 0.00 | 0.82 | 0.82 | 93 | 1012.9 |
| 20260506213914 | 56 | 63 | 0.0 | 1.0 | 0.00 | 0.82 | 0.82 | 92 | 1012.9 |
| 20260506213414 | 57 | 207 | 0.0 | 1.0 | 0.00 | 0.82 | 0.82 | 91 | 1012.9 |
| 20260506212914 | 56 | 249 | 0.0 | 2.0 | 0.00 | 0.82 | 0.82 | 91 | 1012.9 |
| 20260506212414 | 56 | 248 | 1.0 | 2.0 | 0.00 | 0.82 | 0.82 | 93 | 1012.9 |
| 20260506211913 | 56 | 203 | 0.0 | 2.0 | 0.00 | 0.82 | 0.82 | 94 | 1012.9 |
| 20260506211413 | 56 | 159 | 1.0 | 2.0 | 0.00 | 0.82 | 0.82 | 95 | 1012.5 |
| 20260506210414 | 56 | 245 | 0.0 | 1.0 | 0.00 | 0.82 | 0.82 | 95 | 1012.6 |
| 20260506203414 | 57 | 162 | 0.0 | 1.0 | 0.00 | 0.82 | 0.82 | 94 | 1012.5 |
| 20260506202914 | 57 | 209 | 0.0 | 1.0 | 0.00 | 0.82 | 0.82 | 94 | 1012.5 |
| 20260506202414 | 57 | 101 | 0.0 | 1.0 | 0.00 | 0.82 | 0.82 | 94 | 1012.5 |
| 20260506201915 | 57 | 218 | 0.0 | 1.0 | 0.00 | 0.82 | 0.82 | 95 | 1012.2 |
| 20260506201413 | 57 | 82 | 0.0 | 1.0 | 0.00 | 0.82 | 0.82 | 95 | 1012.2 |
| 20260506200915 | 57 | 64 | 1.0 | 1.0 | 0.00 | 0.82 | 0.82 | 95 | 1012.2 |
| 20260506200414 | 57 | 245 | 0.0 | 1.0 | 0.00 | 0.82 | 0.82 | 94 | 1011.9 |
| 20260506195914 | 57 | 124 | 0.0 | 1.0 | 0.00 | 0.82 | 0.82 | 94 | 1011.9 |
| 20260506195414 | 57 | 84 | 0.0 | 1.0 | 0.00 | 0.82 | 0.82 | 94 | 1011.9 |
| 20260506193914 | 57 | 206 | 0.0 | 1.0 | 0.00 | 0.82 | 0.82 | 93 | 1011.5 |
| 20260506193414 | 58 | 207 | 0.0 | 1.0 | 0.00 | 0.82 | 0.82 | 93 | 1011.5 |
| 20260506192414 | 58 | 103 | 0.0 | 2.0 | 0.00 | 0.82 | 0.82 | 94 | 1011.5 |
| 20260506191915 | 58 | 71 | 1.0 | 2.0 | 0.00 | 0.82 | 0.82 | 93 | 1011.4 |
| 20260506190913 | 58 | 237 | 1.0 | 1.0 | 0.00 | 0.82 | 0.82 | 93 | 1011.2 |
| 20260506190414 | 58 | 174 | 0.0 | 1.0 | 0.00 | 0.82 | 0.82 | 92 | 1010.8 |
| 20260506185914 | 58 | 152 | 0.0 | 1.0 | 0.00 | 0.82 | 0.82 | 92 | 1011.2 |
| 20260506185414 | 58 | 166 | 0.0 | 1.0 | 0.00 | 0.82 | 0.82 | 92 | 1010.8 |
| 20260506184915 | 58 | 133 | 0.0 | 1.0 | 0.00 | 0.82 | 0.82 | 92 | 1011.0 |
| 20260506184414 | 59 | 119 | 0.0 | 0.0 | 0.00 | 0.82 | 0.82 | 91 | 1011.2 |
| 20260506183914 | 59 | 186 | 0.0 | 3.0 | 0.00 | 0.82 | 0.82 | 90 | 1010.9 |
| 20260506183414 | 59 | 135 | 0.0 | 3.0 | 0.00 | 0.82 | 0.82 | 89 | 1010.5 |
| 20260506182415 | 58 | 150 | 0.0 | 1.0 | 0.00 | 0.82 | 0.82 | 92 | 1010.5 |
| 20260506181914 | 59 | 117 | 0.0 | 1.0 | 0.00 | 0.82 | 0.82 | 92 | 1010.6 |
| 20260506180916 | 58 | 73 | 0.0 | 2.0 | 0.00 | 0.82 | 0.82 | 91 | 1010.5 |
| 20260506180415 | 58 | 108 | 0.0 | 1.0 | 0.00 | 0.82 | 0.82 | 93 | 1010.5 |
| 20260506175914 | 59 | 166 | 0.0 | 1.0 | 0.00 | 0.82 | 0.82 | 93 | 1010.5 |
| 20260506175414 | 59 | 167 | 0.0 | 0.0 | 0.00 | 0.82 | 0.82 | 93 | 1010.2 |
| 20260506174414 | 59 | 169 | 0.0 | 1.0 | 0.00 | 0.82 | 0.82 | 92 | 1010.2 |
| 20260506173914 | 59 | 155 | 0.0 | 1.0 | 0.00 | 0.82 | 0.82 | 92 | 1009.8 |
| 20260506172914 | 59 | 155 | 0.0 | 2.0 | 0.00 | 0.82 | 0.82 | 93 | 1009.8 |
| 20260506172414 | 59 | 166 | 0.0 | 2.0 | 0.00 | 0.82 | 0.82 | 92 | 1009.8 |
| 20260506171914 | 59 | 220 | 1.0 | 2.0 | 0.00 | 0.82 | 0.82 | 93 | 1009.9 |
| 20260506171414 | 59 | 183 | 0.0 | 1.0 | 0.00 | 0.82 | 0.82 | 92 | 1009.8 |
| 20260506170415 | 59 | 149 | 0.0 | 1.0 | 0.00 | 0.82 | 0.82 | 92 | 1009.8 |
| 20260506165914 | 59 | 182 | 0.0 | 1.0 | 0.00 | 0.82 | 0.82 | 92 | 1009.8 |
| 20260506165414 | 59 | 152 | 0.0 | 1.0 | 0.00 | 0.82 | 0.82 | 92 | 1009.8 |
| 20260506164914 | 59 | 143 | 0.0 | 1.0 | 0.00 | 0.82 | 0.82 | 92 | 1009.8 |
| 20260506163915 | 60 | 136 | 0.0 | 1.0 | 0.00 | 0.82 | 0.82 | 91 | 1009.8 |
| 20260506163414 | 60 | 151 | 0.0 | 1.0 | 0.00 | 0.82 | 0.82 | 91 | 1009.6 |
| 20260506162914 | 60 | 196 | 0.0 | 1.0 | 0.00 | 0.82 | 0.82 | 91 | 1009.8 |
| 20260506162415 | 60 | 189 | 0.0 | 1.0 | 0.00 | 0.82 | 0.82 | 90 | 1009.8 |
| 20260506161914 | 60 | 160 | 0.0 | 1.0 | 0.00 | 0.82 | 0.82 | 90 | 1009.8 |
| 20260506161414 | 60 | 197 | 0.0 | 1.0 | 0.00 | 0.83 | 0.82 | 89 | 1009.8 |
| 20260506160415 | 60 | 186 | 0.0 | 1.0 | 0.00 | 0.83 | 0.82 | 89 | 1009.8 |
| 20260506155915 | 61 | 177 | 0.0 | 1.0 | 0.00 | 0.84 | 0.82 | 88 | 1009.8 |
| 20260506155414 | 61 | 201 | 0.0 | 1.0 | 0.00 | 0.84 | 0.82 | 88 | 1009.8 |
| 20260506154914 | 61 | 67 | 1.0 | 2.0 | 0.00 | 0.84 | 0.82 | 88 | 1009.8 |
| 20260506153916 | 62 | 165 | 0.0 | 1.0 | 0.00 | 0.85 | 0.82 | 85 | 1009.8 |
| 20260506152916 | 61 | 173 | 0.0 | 2.0 | 0.00 | 0.85 | 0.82 | 85 | 1009.8 |
| 20260506152415 | 62 | 73 | 1.0 | 1.0 | 0.00 | 0.85 | 0.82 | 86 | 1009.8 |
| 20260506151914 | 61 | 140 | 0.0 | 2.0 | 0.00 | 0.85 | 0.82 | 84 | 1010.2 |
| 20260506151415 | 61 | 71 | 0.0 | 2.0 | 0.00 | 0.85 | 0.82 | 81 | 1010.2 |
| 20260506150916 | 61 | 74 | 0.0 | 1.0 | 0.00 | 0.85 | 0.82 | 83 | 1010.2 |
| 20260506150414 | 61 | 254 | 0.0 | 2.0 | 0.00 | 0.85 | 0.82 | 80 | 1010.3 |
| 20260506145914 | 61 | 203 | 0.0 | 2.0 | 0.00 | 0.85 | 0.82 | 81 | 1010.4 |
| 20260506145414 | 62 | 259 | 0.0 | 1.0 | 0.00 | 0.85 | 0.82 | 82 | 1010.2 |
| 20260506144914 | 61 | 33 | 0.0 | 1.0 | 0.00 | 0.85 | 0.82 | 82 | 1010.3 |
| 20260506144414 | 61 | 35 | 0.0 | 1.0 | 0.00 | 0.85 | 0.82 | 82 | 1010.2 |
| 20260506143414 | 61 | 64 | 0.0 | 1.0 | 0.00 | 0.85 | 0.82 | 84 | 1010.5 |
| 20260506142914 | 60 | 170 | 0.0 | 2.0 | 0.00 | 0.85 | 0.82 | 84 | 1010.5 |
| 20260506142415 | 60 | 34 | 0.0 | 2.0 | 0.00 | 0.85 | 0.82 | 84 | 1010.8 |
| 20260506141914 | 60 | 256 | 1.0 | 2.0 | 0.00 | 0.85 | 0.82 | 84 | 1010.8 |
| 20260506141414 | 60 | 260 | 1.0 | 1.0 | 0.00 | 0.85 | 0.82 | 87 | 1010.9 |
| 20260506140414 | 59 | 141 | 0.0 | 1.0 | 0.06 | 0.85 | 0.82 | 86 | 1011.5 |
| 20260506135915 | 59 | 53 | 0.0 | 2.0 | 0.09 | 0.85 | 0.82 | 88 | 1011.2 |
| 20260506134415 | 59 | 69 | 0.0 | 3.0 | 0.13 | 0.85 | 0.82 | 92 | 1011.7 |
| 20260506133414 | 58 | 61 | 1.0 | 3.0 | 0.19 | 0.85 | 0.82 | 94 | 1011.6 |
| 20260506132415 | 58 | 45 | 0.0 | 1.0 | 0.26 | 0.85 | 0.82 | 95 | 1011.6 |
| 20260506131414 | 57 | 40 | 1.0 | 1.0 | 0.29 | 0.85 | 0.82 | 95 | 1011.9 |
| 20260506130915 | 57 | 247 | 0.0 | 2.0 | 0.26 | 0.81 | 0.78 | 94 | 1012.2 |
| 20260506130414 | 57 | 65 | 0.0 | 5.0 | 0.26 | 0.79 | 0.76 | 94 | 1012.5 |
| 20260506125916 | 57 | 65 | 1.0 | 5.0 | 0.33 | 0.76 | 0.73 | 94 | 1012.2 |
| 20260506125414 | 58 | 67 | 2.0 | 5.0 | 0.42 | 0.74 | 0.71 | 93 | 1012.2 |
| 20260506124415 | 57 | 253 | 1.0 | 2.0 | 0.47 | 0.72 | 0.69 | 93 | 1012.2 |
| 20260506123914 | 57 | 158 | 0.0 | 2.0 | 0.45 | 0.70 | 0.67 | 93 | 1011.9 |
| 20260506122415 | 57 | 157 | 1.0 | 5.0 | 0.34 | 0.59 | 0.56 | 90 | 1011.9 |
| 20260506121415 | 58 | 244 | 2.0 | 8.0 | 0.31 | 0.56 | 0.53 | 88 | 1011.9 |
| 20260506120914 | 59 | 274 | 1.0 | 7.0 | 0.30 | 0.55 | 0.52 | 87 | 1011.9 |
| 20260506115915 | 61 | 185 | 2.0 | 7.0 | 0.18 | 0.43 | 0.40 | 89 | 1011.5 |
| 20260506115417 | 62 | 249 | 2.0 | 3.0 | 0.07 | 0.32 | 0.29 | 86 | 1010.8 |
| 20260506114914 | 62 | 2 | 0.0 | 2.0 | 0.00 | 0.26 | 0.22 | 80 | 1010.3 |
| 20260506114414 | 62 | 66 | 0.0 | 2.0 | 0.00 | 0.26 | 0.22 | 82 | 1010.0 |
| 20260506113914 | 62 | 67 | 2.0 | 2.0 | 0.00 | 0.26 | 0.22 | 80 | 1009.8 |
| 20260506113416 | 62 | 265 | 1.0 | 5.0 | 0.00 | 0.26 | 0.22 | 82 | 1009.9 |
| 20260506112914 | 62 | 256 | 0.0 | 5.0 | 0.00 | 0.26 | 0.22 | 82 | 1010.2 |
| 20260506112414 | 62 | 251 | 1.0 | 5.0 | 0.00 | 0.26 | 0.22 | 82 | 1010.2 |
| 20260506111914 | 62 | 253 | 1.0 | 3.0 | 0.00 | 0.26 | 0.22 | 81 | 1010.2 |
| 20260506111414 | 63 | 255 | 2.0 | 3.0 | 0.00 | 0.26 | 0.22 | 79 | 1010.5 |
| 20260506110915 | 63 | 264 | 0.0 | 1.0 | 0.01 | 0.27 | 0.22 | 76 | 1010.5 |
| 20260506110415 | 63 | 278 | 0.0 | 3.0 | 0.01 | 0.27 | 0.22 | 75 | 1010.5 |
| 20260506105915 | 62 | 303 | 1.0 | 3.0 | 0.01 | 0.27 | 0.22 | 74 | 1011.1 |
| 20260506105415 | 62 | 45 | 0.0 | 3.0 | 0.01 | 0.27 | 0.22 | 78 | 1010.8 |
| 20260506104914 | 62 | 37 | 0.0 | 3.0 | 0.01 | 0.27 | 0.22 | 82 | 1011.2 |
| 20260506104415 | 62 | 55 | 0.0 | 3.0 | 0.01 | 0.27 | 0.22 | 80 | 1011.2 |
| 20260506103416 | 62 | 48 | 1.0 | 3.0 | 0.01 | 0.28 | 0.22 | 82 | 1011.5 |
| 20260506102915 | 61 | 301 | 0.0 | 1.0 | 0.01 | 0.28 | 0.22 | 85 | 1011.5 |
| 20260506101916 | 60 | 32 | 1.0 | 1.0 | 0.01 | 0.30 | 0.22 | 88 | 1011.5 |
| 20260506101415 | 60 | 182 | 0.0 | 1.0 | 0.01 | 0.30 | 0.22 | 88 | 1011.5 |
| 20260506100915 | 60 | 18 | 0.0 | 2.0 | 0.00 | 0.30 | 0.21 | 90 | 1011.8 |
| 20260506095915 | 59 | 76 | 1.0 | 2.0 | 0.04 | 0.31 | 0.21 | 91 | 1011.9 |
| 20260506095415 | 60 | 82 | 0.0 | 2.0 | 0.05 | 0.31 | 0.21 | 90 | 1011.9 |
| 20260506094917 | 60 | 67 | 1.0 | 2.0 | 0.05 | 0.31 | 0.21 | 89 | 1011.5 |
| 20260506094414 | 60 | 60 | 0.0 | 1.0 | 0.05 | 0.31 | 0.21 | 88 | 1011.9 |
| 20260506093414 | 60 | 50 | 0.0 | 1.0 | 0.05 | 0.32 | 0.21 | 90 | 1011.9 |
| 20260506092914 | 59 | 54 | 0.0 | 1.0 | 0.05 | 0.32 | 0.21 | 91 | 1011.9 |
| 20260506092415 | 59 | 54 | 0.0 | 1.0 | 0.05 | 0.32 | 0.21 | 92 | 1011.9 |
| 20260506091415 | 58 | 193 | 0.0 | 2.0 | 0.05 | 0.32 | 0.21 | 93 | 1011.9 |
| 20260506090915 | 58 | 232 | 1.0 | 2.0 | 0.05 | 0.32 | 0.21 | 93 | 1011.9 |
| 20260506090414 | 58 | 91 | 0.0 | 2.0 | 0.04 | 0.32 | 0.20 | 92 | 1012.0 |
| 20260506085915 | 58 | 247 | 1.0 | 2.0 | 0.01 | 0.29 | 0.17 | 92 | 1011.9 |
| 20260506085414 | 58 | 233 | 1.0 | 1.0 | 0.00 | 0.28 | 0.16 | 92 | 1011.8 |
| 20260506084415 | 58 | 80 | 0.0 | 2.0 | 0.00 | 0.29 | 0.16 | 91 | 1011.9 |
| 20260506082914 | 58 | 67 | 0.0 | 1.0 | 0.00 | 0.30 | 0.16 | 91 | 1011.5 |
| 20260506082414 | 58 | 37 | 0.0 | 2.0 | 0.00 | 0.30 | 0.16 | 92 | 1011.9 |
| 20260506081915 | 58 | 49 | 0.0 | 2.0 | 0.00 | 0.31 | 0.16 | 92 | 1011.7 |
| 20260506081415 | 57 | 66 | 0.0 | 2.0 | 0.00 | 0.31 | 0.16 | 92 | 1011.9 |
| 20260506080914 | 58 | 76 | 0.0 | 2.0 | 0.00 | 0.31 | 0.16 | 94 | 1011.9 |
| 20260506073415 | 57 | 59 | 0.0 | 2.0 | 0.01 | 0.32 | 0.16 | 95 | 1011.9 |
| 20260506072915 | 56 | 107 | 0.0 | 1.0 | 0.02 | 0.32 | 0.16 | 95 | 1011.9 |
| 20260506072414 | 56 | 161 | 0.0 | 1.0 | 0.02 | 0.32 | 0.16 | 95 | 1012.0 |
| 20260506071416 | 56 | 161 | 0.0 | 0.0 | 0.04 | 0.32 | 0.16 | 96 | 1012.2 |
| 20260506070916 | 56 | 161 | 0.0 | 1.0 | 0.05 | 0.32 | 0.16 | 96 | 1011.9 |
| 20260506062415 | 56 | 66 | 1.0 | 1.0 | 0.14 | 0.30 | 0.14 | 95 | 1012.5 |
| 20260506061914 | 56 | 331 | 0.0 | 1.0 | 0.13 | 0.29 | 0.13 | 95 | 1012.9 |
| 20260506061415 | 55 | 80 | 0.0 | 1.0 | 0.12 | 0.28 | 0.12 | 95 | 1012.6 |
| 20260506060414 | 56 | 16 | 0.0 | 1.0 | 0.10 | 0.26 | 0.10 | 95 | 1012.9 |